This is the latest recevied weather packets stored in our database for station/object N7WSS. If no packets are shown the sender has not sent any weather packets the latest 10 day(s).
| Time | Temp. | Humidity | Pressure | Rain* | Wind** | Luminosity | Snow |
|---|---|---|---|---|---|---|---|
| 1788616617 | 25° C | 65% | 1015.2 hPa | 0 mm | - | - | - |
| 1788616314 | 24.44° C | 67% | 1015.2 hPa | 0 mm | - | - | - |
| 1788616013 | 23.89° C | 69% | 1015.1 hPa | 0 mm | - | - | - |
| 1788615712 | 23.33° C | 70% | 1015 hPa | 0 mm | - | - | - |
| 1788615408 | 22.78° C | 73% | 1014.9 hPa | 0 mm | - | - | - |
| 1788615108 | 22.22° C | 74% | 1014.8 hPa | 0 mm | - | - | - |
| 1788614807 | 21.67° C | 76% | 1014.9 hPa | 0 mm | - | - | - |
| 1788614502 | 21.67° C | 76% | 1014.7 hPa | 0 mm | - | - | - |
| 1788614198 | 21.67° C | 77% | 1014.4 hPa | 0 mm | - | - | - |
| 1788613898 | 21.67° C | 77% | 1014.5 hPa | 0 mm | - | - | - |
| 1788613592 | 21.67° C | 77% | 1014.3 hPa | 0 mm | - | - | - |
| 1788613287 | 21.67° C | 77% | 1014.3 hPa | 0 mm | - | - | - |
| 1788612986 | 21.11° C | 77% | 1014.3 hPa | 0 mm | - | - | - |
| 1788612682 | 21.67° C | 77% | 1014.3 hPa | 0 mm | - | - | - |
| 1788612379 | 21.67° C | 77% | 1014.2 hPa | 0 mm | - | - | - |
| 1788612075 | 21.67° C | 78% | 1014.2 hPa | 0 mm | - | - | - |
| 1788611769 | 21.67° C | 78% | 1014.1 hPa | 0 mm | - | - | - |
| 1788611467 | 21.67° C | 78% | 1014.2 hPa | 0 mm | - | - | - |
| 1788611167 | 21.67° C | 77% | 1014.2 hPa | 0 mm | - | - | - |
| 1788610867 | 21.67° C | 77% | 1014.3 hPa | 0 mm | - | - | - |
| 1788610561 | 21.67° C | 77% | 1014.2 hPa | 0 mm | - | - | - |
| 1788610257 | 21.67° C | 77% | 1014.2 hPa | 0 mm | - | - | - |
| 1788609955 | 21.67° C | 76% | 1014 hPa | 0 mm | - | - | - |
| 1788609651 | 21.67° C | 76% | 1014.2 hPa | 0 mm | - | - | - |
| 1788609349 | 21.67° C | 76% | 1014 hPa | 0 mm | - | - | - |
* Rain latest hour (hover to see other rain measurements)
** Current wind speed in m/s (hover to see current wind gust speed)